This demonstration page uses our WeatherBlox Daily Observations layout. Learn more.

Left ArrowRight Arrow

Hourly Observations for January 22, 2022

Temp ( °F °C ) Dew Point ( °F °C ) Humidity (%) Winds ( mph kmh ) Pressure ( in mb ) Visibility ( mi km ) Precip ( " mm )
12:52 am 00:52 Mostly Cloudy 30 -1.1 13 -10.6 49 49 SSW 7 11 30.31 1026 10 16 0.00 0.00
1:52 am 01:52 Clear 31 -0.6 14 -10 49 49 SW 9 15 30.31 1027 10 16 0.00 0.00
2:52 am 02:52 Clear 30 -1.1 14 -10 51 51 WSW 6 9 30.32 1027 10 16 0.00 0.00
3:52 am 03:52 Clear 28 -2.2 15 -9.4 58 58 WSW 7 11 30.33 1027 10 16 0.00 0.00
4:52 am 04:52 Clear 27 -2.8 16 -8.9 63 63 W 5 7 30.35 1028 10 16 0.00 0.00
5:52 am 05:52 Clear 28 -2.2 17 -8.3 63 63 W 3 6 30.35 1028 10 16 0.00 0.00
6:52 am 06:52 Mostly Clear 25 -3.9 17 -8.3 72 72 WNW 7 11 30.37 1029 10 16 0.00 0.00
7:52 am 07:52 Mostly Sunny 23 -5 16 -8.9 74 74 NW 3 6 30.39 1029 10 16 0.00 0.00
8:52 am 08:52 Mostly Sunny 25 -3.9 17 -8.3 72 72 N 8 13 30.39 1029 10 16 0.00 0.00
9:52 am 09:52 Mostly Sunny 28 -2.2 18 -7.8 66 66 N 8 13 30.40 1029 10 16 0.00 0.00
10:52 am 10:52 Partly Cloudy 30 -1.1 18 -7.8 61 61 N 12 19 30.38 1029 10 16 0.00 0.00
11:52 am 11:52 Partly Cloudy 34 1.1 19 -7.2 54 54 VRB 3 6 30.36 1028 10 16 0.00 0.00
12:52 pm 12:52 Mostly Cloudy 34 1.1 19 -7.2 54 54 SE 5 7 30.30 1026 10 16 0.00 0.00
1:52 pm 13:52 Mostly Cloudy 38 3.3 20 -6.7 48 48 SSW 8 13 30.25 1025 10 16 0.00 0.00
2:52 pm 14:52 Mostly Cloudy 40 4.4 22 -5.6 49 49 SSW 8 13 30.21 1023 10 16 0.00 0.00
3:52 pm 15:52 Mostly Cloudy 40 4.4 25 -3.9 55 55 SSE 9 15 30.16 1022 10 16 0.00 0.00
4:52 pm 16:52 Mostly Cloudy 39 3.9 26 -3.3 60 60 SSE 10 17 30.11 1020 10 16 0.00 0.00
5:52 pm 17:52 Mostly Cloudy 43 6.1 25 -3.9 49 49 SSW 10 17 30.09 1019 10 16 0.00 0.00
6:52 pm 18:52 Mostly Cloudy 44 6.7 24 -4.4 45 45 SSW 12 19 30.05 1018 10 16 0.00 0.00
7:52 pm 19:52 Cloudy 44 6.7 24 -4.4 45 45 SW 16 26 30.02 1017 10 16 0.00 0.00
8:52 pm 20:52 Cloudy 46 7.8 22 -5.6 38 38 SW 21 33 29.99 1016 10 16 0.00 0.00
9:52 pm 21:52 Cloudy 46 7.8 22 -5.6 38 38 WSW 20 31 29.97 1015 10 16 0.00 0.00
10:52 pm 22:52 Cloudy 45 7.2 24 -4.4 44 44 W 15 24 29.97 1015 10 16 0.00 0.00
11:52 pm 23:52 Mostly Cloudy 43 6.1 25 -3.9 49 49 W 10 17 29.96 1015 10 16 0.00 0.00

Powered by AerisWeather